,,,PA_Meas_PMT16A,,PR_Meas_QMR101_102,,RH_Meas_QMH101,,SR_Meas_QMS101,,TA_Meas_QMH101,,GenWind,,GenWind,
date,time,status,PA,status,PR,status,RH,status,SR,status,TA,status,DirAvg,status,SpdAvg,
2008-03-26, 00:00:04,VALID,1003.06,VALID,0,VALID,95.2771,VALID,0,VALID,24.0557,VALID,348,VALID,0.449609,
2008-03-26, 00:01:04,VALID,1003.04,VALID,0,VALID,95.2084,VALID,0,VALID,24.0363,VALID,357,VALID,0.596484,
2008-03-26, 00:02:04,VALID,1003.06,VALID,0,VALID,95.2008,VALID,0,VALID,24.0363,VALID,355,VALID,0.691797,
2008-03-26, 00:03:04,VALID,1003.04,VALID,0,VALID,95.2161,VALID,0,VALID,24.0363,VALID,349,VALID,0.617578,
2008-03-26, 00:04:04,VALID,1003.06,VALID,0,VALID,95.2008,VALID,0,VALID,24.0363,VALID,349,VALID,0.371875,
2008-03-26, 00:05:04,VALID,1003.02,VALID,0,VALID,95.1703,VALID,0,VALID,24.0345,VALID,349,VALID,0.305078,
2008-03-26, 00:06:04,VALID,1003.01,VALID,0,VALID,95.1245,VALID,0,VALID,24.0363,VALID,349,VALID,0.360156,
2008-03-26, 00:07:04,VALID,1002.96,VALID,0,VALID,95.1398,VALID,0,VALID,24.0363,VALID,349,VALID,0.353125,
2008-03-26, 00:08:04,VALID,1002.94,VALID,0,VALID,95.1169,VALID,0,VALID,24.0168,VALID,349,VALID,0.344922,
2008-03-26, 00:09:04,VALID,1002.9,VALID,0,VALID,95.1169,VALID,0,VALID,24.0168,VALID,349,VALID,0.288672,
2008-03-26, 00:10:04,VALID,1002.89,VALID,0,VALID,95.1321,VALID,0,VALID,23.9973,VALID,349,VALID,0.138672,
2008-03-26, 00:11:04,VALID,1002.88,VALID,0,VALID,95.1321,VALID,0,VALID,23.9779,VALID,349,VALID,0.355859,
2008-03-26, 00:12:04,VALID,1002.83,VALID,0,VALID,95.1474,VALID,0,VALID,23.9992,VALID,349,VALID,0.326953,
2008-03-26, 00:13:04,VALID,1002.83,VALID,0,VALID,95.1779,VALID,0,VALID,23.9584,VALID,349,VALID,0.237891,
2008-03-26, 00:14:04,VALID,1002.79,VALID,0,VALID,95.1855,VALID,0,VALID,23.9389,VALID,349,VALID,0.370703,
2008-03-26, 00:15:04,VALID,1002.77,VALID,0,VALID,95.1932,VALID,0.100563,VALID,23.9389,VALID,349,VALID,0.456641,
2008-03-26, 00:16:04,VALID,1002.75,VALID,0,VALID,95.2313,VALID,0.100563,VALID,23.9177,VALID,349,VALID,0.466406,
2008-03-26, 00:17:04,VALID,1002.76,VALID,0,VALID,95.3152,VALID,0,VALID,23.9195,VALID,350,VALID,0.347266,
2008-03-26, 00:18:04,VALID,1002.79,VALID,0,VALID,95.3305,VALID,0.100563,VALID,23.9408,VALID,350,VALID,0.352344,
2008-03-26, 00:19:04,VALID,1002.83,VALID,0,VALID,95.3229,VALID,0,VALID,23.9195,VALID,350,VALID,0.450391,
2008-03-26, 00:20:04,VALID,1002.87,VALID,0,VALID,95.3305,VALID,0,VALID,23.9,VALID,351,VALID,0.491406,
2008-03-26, 00:21:04,VALID,1002.9,VALID,0,VALID,95.3381,VALID,0,VALID,23.9,VALID,352,VALID,0.346484,
2008-03-26, 00:22:04,VALID,1002.91,VALID,0,VALID,95.3457,VALID,0,VALID,23.9,VALID,352,VALID,0.234766,
2008-03-26, 00:23:04,VALID,1002.94,VALID,0,VALID,95.3534,VALID,0.100563,VALID,23.8805,VALID,352,VALID,0.229297,
2008-03-26, 00:24:04,VALID,1002.96,VALID,0,VALID,95.3686,VALID,0,VALID,23.8805,VALID,352,VALID,0.175,
2008-03-26, 00:25:04,VALID,1002.98,VALID,0,VALID,95.4068,VALID,0,VALID,23.9018,VALID,352,VALID,0,
2008-03-26, 00:26:04,VALID,1002.95,VALID,0,VALID,95.4449,VALID,0,VALID,23.8805,VALID,352,VALID,0,
2008-03-26, 00:27:04,VALID,1002.98,VALID,0,VALID,95.4526,VALID,0.100563,VALID,23.8805,VALID,352,VALID,0,
2008-03-26, 00:28:04,VALID,1002.94,VALID,0,VALID,95.4754,VALID,0,VALID,23.8805,VALID,352,VALID,0,
2008-03-26, 00:29:04,VALID,1002.93,VALID,0,VALID,95.5212,VALID,0.100563,VALID,23.8787,VALID,352,VALID,0,
2008-03-26, 00:30:04,VALID,1002.97,VALID,0,VALID,95.5517,VALID,0.100563,VALID,23.9,VALID,352,VALID,0,
2008-03-26, 00:31:04,VALID,1002.92,VALID,0,VALID,95.5365,VALID,0,VALID,23.9,VALID,352,VALID,0,
2008-03-26, 00:32:04,VALID,1002.94,VALID,0,VALID,95.5288,VALID,0,VALID,23.9,VALID,352,VALID,0,
2008-03-26, 00:33:04,VALID,1002.94,VALID,0,VALID,95.5517,VALID,0,VALID,23.8805,VALID,352,VALID,0,
2008-03-26, 00:34:04,VALID,1002.9,VALID,0,VALID,95.5594,VALID,0,VALID,23.8805,VALID,352,VALID,0,
2008-03-26, 00:35:04,VALID,1002.89,VALID,0,VALID,95.5136,VALID,0.100563,VALID,23.8805,VALID,352,VALID,0,
2008-03-26, 00:36:04,VALID,1002.86,VALID,0,VALID,95.4449,VALID,0,VALID,23.8611,VALID,352,VALID,0.348437,
2008-03-26, 00:37:04,VALID,1002.82,VALID,0,VALID,95.4678,VALID,0,VALID,23.8611,VALID,352,VALID,0.325781,
2008-03-26, 00:38:04,VALID,1002.79,VALID,0,VALID,95.4602,VALID,0,VALID,23.8824,VALID,352,VALID,0.309375,
2008-03-26, 00:39:04,VALID,1002.8,VALID,0,VALID,95.4297,VALID,0,VALID,23.8611,VALID,352,VALID,0.310156,
2008-03-26, 00:40:04,VALID,1002.77,VALID,0,VALID,95.4526,VALID,0,VALID,23.8416,VALID,352,VALID,0.443359,
2008-03-26, 00:41:04,VALID,1002.78,VALID,0,VALID,95.4678,VALID,0.100563,VALID,23.8416,VALID,352,VALID,0.386719,
2008-03-26, 00:42:04,VALID,1002.77,VALID,0,VALID,95.4754,VALID,0,VALID,23.8416,VALID,355,VALID,0.563672,
2008-03-26, 00:43:04,VALID,1002.74,VALID,0,VALID,95.4602,VALID,0,VALID,23.8416,VALID,356,VALID,0.337891,
2008-03-26, 00:44:04,VALID,1002.75,VALID,0,VALID,95.4907,VALID,0.100563,VALID,23.8416,VALID,356,VALID,0.309766,
2008-03-26, 00:45:04,VALID,1002.75,VALID,0,VALID,95.4754,VALID,0,VALID,23.8416,VALID,356,VALID,0.429688,
2008-03-26, 00:46:04,VALID,1002.75,VALID,0,VALID,95.5517,VALID,0.100563,VALID,23.8221,VALID,356,VALID,0.346094,
2008-03-26, 00:47:04,VALID,1002.73,VALID,0,VALID,95.5822,VALID,0,VALID,23.8416,VALID,356,VALID,0.25625,
2008-03-26, 00:48:04,VALID,1002.74,VALID,0,VALID,95.5822,VALID,0,VALID,23.8416,VALID,356,VALID,0.233984,
2008-03-26, 00:49:04,VALID,1002.7,VALID,0,VALID,95.5136,VALID,0,VALID,23.8611,VALID,356,VALID,0.305469,
2008-03-26, 00:50:04,VALID,1002.71,VALID,0,VALID,95.5365,VALID,0,VALID,23.8611,VALID,356,VALID,0.269141,
2008-03-26, 00:51:04,VALID,1002.68,VALID,0,VALID,95.5441,VALID,0.100563,VALID,23.8611,VALID,356,VALID,0.340234,
2008-03-26, 00:52:04,VALID,1002.67,VALID,0,VALID,95.5288,VALID,0,VALID,23.8611,VALID,357,VALID,0.496094,
2008-03-26, 00:53:04,VALID,1002.66,VALID,0,VALID,95.5365,VALID,0,VALID,23.9018,VALID,357,VALID,0.498437,
2008-03-26, 00:54:04,VALID,1002.66,VALID,0,VALID,95.4831,VALID,0,VALID,23.8611,VALID,360,VALID,0.542969,
2008-03-26, 00:55:04,VALID,1002.6,VALID,0,VALID,95.4449,VALID,0,VALID,23.8611,VALID,9,VALID,0.525,
2008-03-26, 00:56:04,VALID,1002.59,VALID,0,VALID,95.4678,VALID,0,VALID,23.8611,VALID,21,VALID,0.842969,
2008-03-26, 00:57:04,VALID,1002.58,VALID,0,VALID,95.5594,VALID,0.100563,VALID,23.8805,VALID,30,VALID,0.762891,
2008-03-26, 00:58:04,VALID,1002.57,VALID,0,VALID,95.5441,VALID,0,VALID,23.9,VALID,27,VALID,0.378125,
2008-03-26, 00:59:04,VALID,1002.5,VALID,0,VALID,95.5441,VALID,0.100563,VALID,23.9,VALID,27,VALID,0.299219,
2008-03-26, 01:00:04,VALID,1002.5,VALID,0,VALID,95.5594,VALID,0.100563,VALID,23.9,VALID,18,VALID,0.387891,
2008-03-26, 01:01:04,VALID,1002.44,VALID,0,VALID,95.506,VALID,0,VALID,23.8982,VALID,10,VALID,0.273438,
2008-03-26, 01:02:04,VALID,1002.41,VALID,0,VALID,95.4449,VALID,0,VALID,23.9195,VALID,10,VALID,0.153516,
2008-03-26, 01:03:04,VALID,1002.35,VALID,0,VALID,95.4831,VALID,0,VALID,23.8982,VALID,10,VALID,0,
2008-03-26, 01:04:04,VALID,1002.34,VALID,0,VALID,95.506,VALID,0,VALID,23.9195,VALID,10,VALID,0.0238281,
2008-03-26, 01:05:04,VALID,1002.32,VALID,0,VALID,95.4526,VALID,0,VALID,23.9,VALID,10,VALID,0.322656,
2008-03-26, 01:06:04,VALID,1002.3,VALID,0,VALID,95.4754,VALID,0,VALID,23.8787,VALID,10,VALID,0.169141,
2008-03-26, 01:07:04,VALID,1002.3,VALID,0,VALID,95.4678,VALID,0,VALID,23.9,VALID,10,VALID,0.133984,
2008-03-26, 01:08:04,VALID,1002.29,VALID,0,VALID,95.4678,VALID,0,VALID,23.9,VALID,15,VALID,0.433594,
2008-03-26, 01:09:04,VALID,1002.25,VALID,0,VALID,95.4144,VALID,0,VALID,23.9,VALID,15,VALID,0.235547,
2008-03-26, 01:10:04,VALID,1002.24,VALID,0,VALID,95.4144,VALID,0.100563,VALID,23.8787,VALID,15,VALID,0.289453,
2008-03-26, 01:11:04,VALID,1002.24,VALID,0,VALID,95.422,VALID,0,VALID,23.8787,VALID,15,VALID,0.341016,
2008-03-26, 01:12:04,VALID,1002.28,VALID,0,VALID,95.4068,VALID,0.100563,VALID,23.8805,VALID,15,VALID,0.277734,
2008-03-26, 01:13:04,VALID,1002.24,VALID,0,VALID,95.4449,VALID,0.100563,VALID,23.9,VALID,15,VALID,0.400781,
2008-03-26, 01:14:04,VALID,1002.26,VALID,0,VALID,95.4449,VALID,0.100563,VALID,23.8787,VALID,15,VALID,0.334375,
2008-03-26, 01:15:04,VALID,1002.24,VALID,0,VALID,95.4678,VALID,0.100563,VALID,23.9,VALID,15,VALID,0.501562,
2008-03-26, 01:16:04,VALID,1002.25,VALID,0,VALID,95.4983,VALID,0.100563,VALID,23.8787,VALID,12,VALID,0.485156,
2008-03-26, 01:17:04,VALID,1002.22,VALID,0,VALID,95.4983,VALID,0,VALID,23.9,VALID,12,VALID,0.317187,
2008-03-26, 01:18:04,VALID,1002.23,VALID,0,VALID,95.4678,VALID,0.100563,VALID,23.9,VALID,12,VALID,0.376563,
2008-03-26, 01:19:04,VALID,1002.2,VALID,0,VALID,95.4526,VALID,0,VALID,23.9,VALID,12,VALID,0.187891,
2008-03-26, 01:20:04,VALID,1002.23,VALID,0,VALID,95.4678,VALID,0,VALID,23.8805,VALID,12,VALID,0.0148437,
2008-03-26, 01:21:04,VALID,1002.17,VALID,0,VALID,95.506,VALID,0,VALID,23.8805,VALID,12,VALID,0,
2008-03-26, 01:22:04,VALID,1002.14,VALID,0,VALID,95.5136,VALID,0,VALID,23.8593,VALID,12,VALID,0,
2008-03-26, 01:23:04,VALID,1002.14,VALID,0,VALID,95.4983,VALID,0,VALID,23.8593,VALID,12,VALID,0,
2008-03-26, 01:24:04,VALID,1002.11,VALID,0,VALID,95.5212,VALID,0.100563,VALID,23.8611,VALID,12,VALID,0,
2008-03-26, 01:25:04,VALID,1002.11,VALID,0,VALID,95.506,VALID,0.100563,VALID,23.8611,VALID,12,VALID,0,
2008-03-26, 01:26:04,VALID,1002.09,VALID,0,VALID,95.5288,VALID,0.100563,VALID,23.8824,VALID,12,VALID,0.316016,
2008-03-26, 01:27:04,VALID,1002.05,VALID,0,VALID,95.5441,VALID,0,VALID,23.8611,VALID,12,VALID,0.404687,
2008-03-26, 01:28:04,VALID,1002.04,VALID,0,VALID,95.5288,VALID,0.100563,VALID,23.8611,VALID,12,VALID,0.453125,
2008-03-26, 01:29:04,VALID,1002.02,VALID,0,VALID,95.5136,VALID,0,VALID,23.8416,VALID,12,VALID,0.508984,
2008-03-26, 01:30:04,VALID,1001.99,VALID,0,VALID,95.5365,VALID,0,VALID,23.8416,VALID,4,VALID,0.512109,
2008-03-26, 01:31:04,VALID,1001.95,VALID,0,VALID,95.5746,VALID,0,VALID,23.8203,VALID,355,VALID,0.505078,
2008-03-26, 01:32:04,VALID,1001.98,VALID,0,VALID,95.567,VALID,0,VALID,23.8611,VALID,355,VALID,0.344922,
2008-03-26, 01:33:04,VALID,1001.97,VALID,0,VALID,95.5441,VALID,0,VALID,23.8203,VALID,355,VALID,0.501953,
2008-03-26, 01:34:04,VALID,1001.92,VALID,0,VALID,95.5441,VALID,0.100563,VALID,23.8416,VALID,355,VALID,0.225391,
2008-03-26, 01:35:04,VALID,1001.91,VALID,0,VALID,95.5594,VALID,0,VALID,23.8416,VALID,355,VALID,0.257031,
2008-03-26, 01:36:04,VALID,1001.87,VALID,0,VALID,95.5594,VALID,0,VALID,23.8416,VALID,355,VALID,0.286719,
2008-03-26, 01:37:04,VALID,1001.82,VALID,0,VALID,95.5899,VALID,0.100563,VALID,23.8009,VALID,355,VALID,0,
2008-03-26, 01:38:04,VALID,1001.79,VALID,0,VALID,95.5746,VALID,0,VALID,23.8221,VALID,355,VALID,0,
2008-03-26, 01:39:04,VALID,1001.78,VALID,0,VALID,95.5594,VALID,0,VALID,23.8221,VALID,356,VALID,0,
2008-03-26, 01:40:04,VALID,1001.78,VALID,0,VALID,95.567,VALID,0,VALID,23.8221,VALID,21,VALID,0.400391,
2008-03-26, 01:41:04,VALID,1001.74,VALID,0,VALID,95.5136,VALID,0,VALID,23.8027,VALID,21,VALID,0.504687,
2008-03-26, 01:42:04,VALID,1001.75,VALID,0,VALID,95.5212,VALID,0,VALID,23.8027,VALID,21,VALID,0.367188,
2008-03-26, 01:43:04,VALID,1001.73,VALID,0,VALID,95.5136,VALID,0,VALID,23.7832,VALID,21,VALID,0.423828,
2008-03-26, 01:44:04,VALID,1001.74,VALID,0,VALID,95.5441,VALID,0.100563,VALID,23.7832,VALID,21,VALID,0.405078,
2008-03-26, 01:45:04,VALID,1001.71,VALID,0,VALID,95.5517,VALID,0,VALID,23.7832,VALID,21,VALID,0.268359,
2008-03-26, 01:46:04,VALID,1001.7,VALID,0,VALID,95.5975,VALID,0,VALID,23.8027,VALID,21,VALID,0.348047,
2008-03-26, 01:47:04,VALID,1001.68,VALID,0,VALID,95.5899,VALID,0,VALID,23.8027,VALID,35,VALID,0.234375,
2008-03-26, 01:48:04,VALID,1001.65,VALID,0,VALID,95.5975,VALID,0,VALID,23.8221,VALID,37,VALID,0.264453,
2008-03-26, 01:49:04,VALID,1001.67,VALID,0,VALID,95.5899,VALID,0,VALID,23.8221,VALID,37,VALID,0.399609,
2008-03-26, 01:50:04,VALID,1001.62,VALID,0,VALID,95.6051,VALID,0,VALID,23.8027,VALID,37,VALID,0.318359,
2008-03-26, 01:51:04,VALID,1001.64,VALID,0,VALID,95.5899,VALID,0,VALID,23.8203,VALID,36,VALID,0.405078,
2008-03-26, 01:52:04,VALID,1001.63,VALID,0,VALID,95.5899,VALID,0,VALID,23.8221,VALID,36,VALID,0.537109,
2008-03-26, 01:53:04,VALID,1001.64,VALID,0,VALID,95.5288,VALID,0,VALID,23.8221,VALID,23,VALID,0.548437,
2008-03-26, 01:54:04,VALID,1001.62,VALID,0,VALID,95.4907,VALID,0,VALID,23.8221,VALID,23,VALID,0.470313,
2008-03-26, 01:55:04,VALID,1001.63,VALID,0,VALID,95.4526,VALID,0,VALID,23.7832,VALID,23,VALID,0.225781,
2008-03-26, 01:56:04,VALID,1001.63,VALID,0,VALID,95.4449,VALID,0,VALID,23.7832,VALID,23,VALID,0.204297,
2008-03-26, 01:57:04,VALID,1001.64,VALID,0,VALID,95.5136,VALID,0,VALID,23.7832,VALID,23,VALID,0.303125,
2008-03-26, 01:58:04,VALID,1001.67,VALID,0,VALID,95.5365,VALID,0,VALID,23.8027,VALID,23,VALID,0.348047,
2008-03-26, 01:59:04,VALID,1001.68,VALID,0,VALID,95.5899,VALID,0,VALID,23.8434,VALID,23,VALID,0.173438,
2008-03-26, 02:00:04,VALID,1001.66,VALID,0,VALID,95.6051,VALID,0,VALID,23.8221,VALID,17,VALID,0.209375,
2008-03-26, 02:01:04,VALID,1001.68,VALID,0,VALID,95.5822,VALID,0,VALID,23.8221,VALID,17,VALID,0.405859,
2008-03-26, 02:02:04,VALID,1001.71,VALID,0,VALID,95.5441,VALID,0,VALID,23.8629,VALID,17,VALID,0.124609,
2008-03-26, 02:03:04,VALID,1001.7,VALID,0,VALID,95.5822,VALID,0,VALID,23.8221,VALID,17,VALID,0,
2008-03-26, 02:04:04,VALID,1001.75,VALID,0,VALID,95.5975,VALID,0,VALID,23.8611,VALID,58,VALID,0.408984,
2008-03-26, 02:05:04,VALID,1001.77,VALID,0,VALID,95.6204,VALID,0,VALID,23.8611,VALID,79,VALID,0.307422,
2008-03-26, 02:06:04,VALID,1001.78,VALID,0,VALID,95.6128,VALID,0,VALID,23.8805,VALID,80,VALID,0.124609,
2008-03-26, 02:07:04,VALID,1001.79,VALID,0,VALID,95.5899,VALID,0,VALID,23.9,VALID,76,VALID,0.202734,
2008-03-26, 02:08:04,VALID,1001.78,VALID,0,VALID,95.567,VALID,0,VALID,23.9,VALID,59,VALID,0.102734,
2008-03-26, 02:09:04,VALID,1001.8,VALID,0,VALID,95.5441,VALID,0,VALID,23.9195,VALID,59,VALID,0.316016,
2008-03-26, 02:10:04,VALID,1001.78,VALID,0,VALID,95.5136,VALID,0,VALID,23.9408,VALID,39,VALID,0.596094,
2008-03-26, 02:11:04,VALID,1001.78,VALID,0,VALID,95.5136,VALID,0,VALID,23.9779,VALID,69,VALID,0.314844,
2008-03-26, 02:12:04,VALID,1001.79,VALID,0,VALID,95.4297,VALID,0,VALID,23.9973,VALID,68,VALID,0.255078,
2008-03-26, 02:13:04,VALID,1001.8,VALID,0,VALID,95.3457,VALID,0,VALID,23.9955,VALID,60,VALID,0.302734,
2008-03-26, 02:14:04,VALID,1001.78,VALID,0,VALID,95.2923,VALID,0,VALID,24.0363,VALID,17,VALID,0.794141,
2008-03-26, 02:15:04,VALID,1001.77,VALID,0,VALID,95.2161,VALID,0,VALID,24.0557,VALID,38,VALID,0.500781,
2008-03-26, 02:16:04,VALID,1001.76,VALID,0,VALID,95.0787,VALID,0,VALID,24.0947,VALID,34,VALID,0.610156,
2008-03-26, 02:17:04,VALID,1001.82,VALID,0,VALID,94.8651,VALID,0,VALID,24.1744,VALID,29,VALID,0.789844,
2008-03-26, 02:18:04,VALID,1001.81,VALID,0,VALID,94.6439,VALID,0,VALID,24.2115,VALID,33,VALID,0.767187,
2008-03-26, 02:19:04,VALID,1001.84,VALID,0,VALID,94.2777,VALID,0,VALID,24.2504,VALID,31,VALID,1.00312,
2008-03-26, 02:20:04,VALID,1001.84,VALID,0,VALID,94.0259,VALID,0,VALID,24.3283,VALID,20,VALID,0.516797,
2008-03-26, 02:21:04,VALID,1001.82,VALID,0,VALID,93.4538,VALID,0,VALID,24.3867,VALID,20,VALID,0.792969,
2008-03-26, 02:22:04,VALID,1001.82,VALID,0,VALID,92.6909,VALID,0,VALID,24.5035,VALID,26,VALID,1.23945,
2008-03-26, 02:23:04,VALID,1001.82,VALID,0,VALID,91.7068,VALID,0,VALID,24.6788,VALID,33,VALID,1.43125,
2008-03-26, 02:24:04,VALID,1001.79,VALID,0,VALID,90.8829,VALID,0,VALID,24.7956,VALID,18,VALID,1.12188,
2008-03-26, 02:25:04,VALID,1001.8,VALID,0,VALID,90.6387,VALID,0,VALID,24.9533,VALID,12,VALID,0.630078,
2008-03-26, 02:26:04,VALID,1001.76,VALID,0,VALID,90.4633,VALID,0,VALID,24.9709,VALID,9,VALID,0.844922,
2008-03-26, 02:27:04,VALID,1001.75,VALID,0,VALID,90.4327,VALID,0,VALID,24.9319,VALID,21,VALID,1.05703,
2008-03-26, 02:28:04,VALID,1001.73,VALID,0,VALID,90.0132,VALID,0,VALID,24.9319,VALID,18,VALID,0.871094,
2008-03-26, 02:29:04,VALID,1001.74,VALID,0,VALID,89.769,VALID,0,VALID,24.9125,VALID,27,VALID,0.929297,
2008-03-26, 02:30:04,VALID,1001.75,VALID,0,VALID,89.3494,VALID,0,VALID,24.9709,VALID,27,VALID,0.755859,
2008-03-26, 02:31:04,VALID,1001.74,VALID,0,VALID,89.2503,VALID,0,VALID,24.9904,VALID,18,VALID,1.00117,
2008-03-26, 02:32:04,VALID,1001.73,VALID,0,VALID,88.6171,VALID,0,VALID,25.0507,VALID,42,VALID,1.23828,
2008-03-26, 02:33:04,VALID,1001.72,VALID,0,VALID,88.3195,VALID,0,VALID,25.1267,VALID,79,VALID,0.8375,
2008-03-26, 02:34:04,VALID,1001.7,VALID,0,VALID,88.2738,VALID,0,VALID,25.226,VALID,49,VALID,0.773828,
2008-03-26, 02:35:04,VALID,1001.7,VALID,0,VALID,87.8847,VALID,0,VALID,25.2046,VALID,44,VALID,0.539063,
2008-03-26, 02:36:04,VALID,1001.67,VALID,0,VALID,87.16,VALID,0,VALID,25.224,VALID,31,VALID,1.47617,
2008-03-26, 02:37:04,VALID,1001.67,VALID,0,VALID,87.076,VALID,0,VALID,25.3214,VALID,47,VALID,0.796094,
2008-03-26, 02:38:04,VALID,1001.64,VALID,0,VALID,87.3659,VALID,0,VALID,25.3214,VALID,29,VALID,0.614062,
2008-03-26, 02:39:04,VALID,1001.67,VALID,0,VALID,87.2896,VALID,0,VALID,25.2435,VALID,97,VALID,0.926562,
2008-03-26, 02:40:04,VALID,1001.63,VALID,0,VALID,87.4346,VALID,0,VALID,25.263,VALID,74,VALID,1.31289,
2008-03-26, 02:41:04,VALID,1001.62,VALID,0,VALID,87.3812,VALID,0,VALID,25.2435,VALID,78,VALID,1.19492,
2008-03-26, 02:42:04,VALID,1001.66,VALID,0,VALID,87.7245,VALID,0,VALID,25.226,VALID,80,VALID,1.47695,
2008-03-26, 02:43:04,VALID,1001.65,VALID,0,VALID,87.8923,VALID,0,VALID,25.1461,VALID,101,VALID,1.2832,
2008-03-26, 02:44:04,VALID,1001.62,VALID,0,VALID,88.0449,VALID,0,VALID,25.1286,VALID,91,VALID,1.71328,
2008-03-26, 02:45:04,VALID,1001.63,VALID,0,VALID,88.3424,VALID,0,VALID,25.1072,VALID,71,VALID,0.926562,
2008-03-26, 02:46:04,VALID,1001.65,VALID,0,VALID,88.6552,VALID,0,VALID,25.0682,VALID,23,VALID,0.617578,
2008-03-26, 02:47:04,VALID,1001.66,VALID,0,VALID,88.762,VALID,0,VALID,25.0701,VALID,41,VALID,0.55,
2008-03-26, 02:48:04,VALID,1001.64,VALID,0,VALID,88.907,VALID,0,VALID,25.0312,VALID,22,VALID,1.05898,
2008-03-26, 02:49:04,VALID,1001.69,VALID,0,VALID,89.1053,VALID,0,VALID,24.9709,VALID,48,VALID,0.962891,
2008-03-26, 02:50:04,VALID,1001.68,VALID,0,VALID,89.3571,VALID,0,VALID,24.9533,VALID,26,VALID,0.755469,
2008-03-26, 02:51:04,VALID,1001.67,VALID,0,VALID,89.6393,VALID,0,VALID,24.9143,VALID,18,VALID,0.963672,
2008-03-26, 02:52:04,VALID,1001.68,VALID,0,VALID,89.647,VALID,0,VALID,24.8735,VALID,28,VALID,1.1418,
2008-03-26, 02:53:04,VALID,1001.7,VALID,0,VALID,89.7538,VALID,0,VALID,24.8754,VALID,46,VALID,0.927734,
2008-03-26, 02:54:04,VALID,1001.68,VALID,0,VALID,89.914,VALID,0,VALID,24.8346,VALID,33,VALID,1.0957,
2008-03-26, 02:55:04,VALID,1001.65,VALID,0,VALID,90.0055,VALID,0,VALID,24.8346,VALID,57,VALID,0.884766,
2008-03-26, 02:56:04,VALID,1001.64,VALID,0,VALID,89.9674,VALID,0,VALID,24.854,VALID,22,VALID,1.1418,
2008-03-26, 02:57:04,VALID,1001.63,VALID,0,VALID,89.8682,VALID,0,VALID,24.893,VALID,37,VALID,0.979688,
2008-03-26, 02:58:04,VALID,1001.62,VALID,0,VALID,89.7461,VALID,0.100563,VALID,24.9514,VALID,27,VALID,0.879297,
2008-03-26, 02:59:04,VALID,1001.61,VALID,0,VALID,89.7156,VALID,0,VALID,24.9709,VALID,31,VALID,1.64063,
2008-03-26, 03:00:04,VALID,1001.64,VALID,0,VALID,89.6241,VALID,0,VALID,25.0098,VALID,38,VALID,0.951953,
2008-03-26, 03:01:04,VALID,1001.63,VALID,0,VALID,89.5325,VALID,0,VALID,25.0488,VALID,27,VALID,0.782422,
2008-03-26, 03:02:04,VALID,1001.65,VALID,0,VALID,89.7309,VALID,0,VALID,25.0896,VALID,44,VALID,1.09297,
2008-03-26, 03:03:04,VALID,1001.67,VALID,0,VALID,89.5249,VALID,0,VALID,25.1267,VALID,36,VALID,2.14492,
2008-03-26, 03:04:04,VALID,1001.71,VALID,0,VALID,89.2579,VALID,0,VALID,25.2435,VALID,39,VALID,1.20313,
2008-03-26, 03:05:04,VALID,1001.76,VALID,0,VALID,88.9299,VALID,0,VALID,25.263,VALID,61,VALID,1.65273,
2008-03-26, 03:06:04,VALID,1001.81,VALID,0,VALID,88.8993,VALID,0,VALID,25.2844,VALID,89,VALID,1.20898,
2008-03-26, 03:07:04,VALID,1001.85,VALID,0,VALID,88.8917,VALID,0,VALID,25.2435,VALID,94,VALID,1.54531,
2008-03-26, 03:08:04,VALID,1001.88,VALID,0,VALID,88.8993,VALID,0,VALID,25.224,VALID,80,VALID,0.896094,
2008-03-26, 03:09:04,VALID,1001.89,VALID,0,VALID,88.9604,VALID,0,VALID,25.224,VALID,99,VALID,0.478125,
2008-03-26, 03:10:04,VALID,1001.85,VALID,0,VALID,89.1282,VALID,0,VALID,25.2046,VALID,45,VALID,0.879687,
2008-03-26, 03:11:04,VALID,1001.85,VALID,0,VALID,89.2121,VALID,0,VALID,25.226,VALID,19,VALID,0.987109,
2008-03-26, 03:12:04,VALID,1001.84,VALID,0,VALID,89.2121,VALID,0,VALID,25.2046,VALID,42,VALID,0.747656,
2008-03-26, 03:13:04,VALID,1001.84,VALID,0,VALID,89.2121,VALID,0,VALID,25.1851,VALID,50,VALID,0.565234,
2008-03-26, 03:14:04,VALID,1001.79,VALID,0,VALID,89.2732,VALID,0,VALID,25.1675,VALID,75,VALID,0.936328,
2008-03-26, 03:15:04,VALID,1001.76,VALID,0,VALID,89.5402,VALID,0,VALID,25.1072,VALID,32,VALID,1.07031,
2008-03-26, 03:16:04,VALID,1001.77,VALID,0,VALID,89.6851,VALID,0,VALID,25.1072,VALID,45,VALID,0.623438,
2008-03-26, 03:17:04,VALID,1001.7,VALID,0,VALID,89.7843,VALID,0,VALID,25.1072,VALID,51,VALID,0.854297,
2008-03-26, 03:18:04,VALID,1001.66,VALID,0,VALID,89.7233,VALID,0,VALID,25.1267,VALID,14,VALID,0.643359,
2008-03-26, 03:19:04,VALID,1001.63,VALID,0,VALID,89.6012,VALID,0.100563,VALID,25.1267,VALID,50,VALID,0.943359,
2008-03-26, 03:20:04,VALID,1001.63,VALID,0,VALID,89.6012,VALID,0,VALID,25.1267,VALID,46,VALID,0.576953,
2008-03-26, 03:21:04,VALID,1001.59,VALID,0,VALID,89.5783,VALID,0,VALID,25.148,VALID,41,VALID,0.664844,
2008-03-26, 03:22:04,VALID,1001.59,VALID,0,VALID,89.5936,VALID,0,VALID,25.1267,VALID,49,VALID,0.748828,
2008-03-26, 03:23:04,VALID,1001.57,VALID,0,VALID,89.5859,VALID,0,VALID,25.148,VALID,42,VALID,0.803125,
2008-03-26, 03:24:04,VALID,1001.56,VALID,0,VALID,89.5554,VALID,0,VALID,25.148,VALID,58,VALID,0.636328,
2008-03-26, 03:25:04,VALID,1001.56,VALID,0,VALID,89.6241,VALID,0.100563,VALID,25.1072,VALID,59,VALID,0.752734,
2008-03-26, 03:26:04,VALID,1001.55,VALID,0,VALID,89.769,VALID,0,VALID,25.0896,VALID,90,VALID,1.05078,
2008-03-26, 03:27:04,VALID,1001.55,VALID,0,VALID,89.6851,VALID,0,VALID,25.0701,VALID,80,VALID,1.39102,
2008-03-26, 03:28:04,VALID,1001.54,VALID,0,VALID,89.4181,VALID,0,VALID,25.1072,VALID,96,VALID,1.50664,
2008-03-26, 03:29:04,VALID,1001.54,VALID,0,VALID,89.3342,VALID,0,VALID,25.1675,VALID,74,VALID,0.531641,
2008-03-26, 03:30:04,VALID,1001.55,VALID,0,VALID,89.3494,VALID,0,VALID,25.1267,VALID,70,VALID,0.705859,
2008-03-26, 03:31:04,VALID,1001.53,VALID,0,VALID,89.4334,VALID,0,VALID,25.0877,VALID,70,VALID,0.841797,
2008-03-26, 03:32:04,VALID,1001.56,VALID,0,VALID,89.3876,VALID,0,VALID,25.0682,VALID,79,VALID,1.50742,
2008-03-26, 03:33:04,VALID,1001.55,VALID,0,VALID,89.3342,VALID,0,VALID,25.0877,VALID,97,VALID,0.808594,
2008-03-26, 03:34:04,VALID,1001.57,VALID,0,VALID,89.3723,VALID,0,VALID,25.0877,VALID,82,VALID,0.726172,
2008-03-26, 03:35:04,VALID,1001.56,VALID,0,VALID,89.2503,VALID,0,VALID,25.1072,VALID,79,VALID,1.33164,
2008-03-26, 03:36:04,VALID,1001.56,VALID,0,VALID,88.9909,VALID,0,VALID,25.1675,VALID,77,VALID,0.81875,
2008-03-26, 03:37:04,VALID,1001.54,VALID,0,VALID,88.7391,VALID,0,VALID,25.1851,VALID,87,VALID,1.33008,
2008-03-26, 03:38:04,VALID,1001.54,VALID,0,VALID,88.5789,VALID,0,VALID,25.2046,VALID,65,VALID,0.967969,
2008-03-26, 03:39:04,VALID,1001.51,VALID,0,VALID,88.5026,VALID,0,VALID,25.224,VALID,36,VALID,0.866016,
2008-03-26, 03:40:04,VALID,1001.48,VALID,0,VALID,88.5255,VALID,0,VALID,25.2435,VALID,42,VALID,0.901563,
2008-03-26, 03:41:04,VALID,1001.45,VALID,0,VALID,88.5789,VALID,0,VALID,25.2454,VALID,29,VALID,1.10938,
2008-03-26, 03:42:04,VALID,1001.42,VALID,0,VALID,88.7773,VALID,0,VALID,25.1851,VALID,25,VALID,0.609375,
2008-03-26, 03:43:04,VALID,1001.45,VALID,0,VALID,89.0061,VALID,0,VALID,25.1656,VALID,27,VALID,0.324219,
2008-03-26, 03:44:04,VALID,1001.44,VALID,0,VALID,89.1664,VALID,0.100563,VALID,25.1267,VALID,30,VALID,0.195313,
2008-03-26, 03:45:04,VALID,1001.44,VALID,0,VALID,89.3418,VALID,0,VALID,25.0663,VALID,61,VALID,0.478516,